Lapse_Rate
2.8 2.5 3.1 4.6 4.9 5.2 5.0 4.6 4.3 6.4 6.7 3.2 4.9 2.9 4.3 5.1 5.4 3.9 4.2 2.3 0.6 -1.0 -1.5 -1.1 -0.7 -0.0 0.5 0.8 0.9 1.1 1.4 1.8 2.0 2.3 2.6 2.8 3.2 3.7
3.9 3.0 3.3 3.5 3.8 5.2 4.0 4.7 4.5 5.1 6.3 7.2 4.4 3.5 3.1 4.9 5.0 4.5 4.5 4.8 1.9 -1.1 -1.3 -1.7 -1.7 -1.6 -1.2 -1.0 -0.7 -0.3 0.2 0.6 1.1 1.4 1.8 2.4 2.7 2.9
3.1 4.5 4.6 4.2 3.5 4.4 4.2 5.2 5.3 4.4 5.1 6.4 6.0 4.8 4.5 4.2 4.3 3.9 5.0 4.1 3.5 -0.2 -1.0 -1.5 -1.9 -2.0 -2.0 -2.0 -1.7 -1.4 -1.0 -0.5 -0.1 0.2 0.7 1.2 1.9 2.5
3.6 6.2 6.7 6.8 5.7 4.3 2.7 3.3 4.0 4.3 4.6 5.4 4.9 5.1 3.7 4.7 3.5 3.0 2.8 3.7 4.0 3.8 -0.9 -1.3 -1.5 -1.9 -2.0 -2.1 -2.2 -2.0 -1.7 -1.3 -0.9 -0.6 -0.4 0.2 0.6 1.8
3.8 6.9 7.2 6.7 5.9 4.4 4.4 2.7 2.5 2.2 3.0 5.4 4.6 6.4 4.9 4.0 3.8 3.2 2.3 1.9 3.7 2.8 1.9 0.6 -0.2 -1.8 -2.6 -2.7 -2.5 -2.2 -2.2 -1.8 -1.1 -1.1 -0.9 -0.9 -0.6 -0.1
3.8 6.0 7.9 7.7 6.4 5.6 4.5 2.7 2.8 1.5 1.4 2.1 3.3 5.4 4.7 4.3 3.5 4.3 4.1 2.8 3.4 3.6 3.6 2.7 2.8 1.0 -0.9 -2.0 -2.3 -2.3 -2.5 -3.0 -3.0 -2.6 -1.9 -1.5 -1.1 -0.6
3.4 5.4 6.3 6.4 4.9 3.9 4.5 2.2 2.0 1.9 2.5 1.6 3.0 3.4 4.9 4.8 4.3 4.0 3.8 3.4 1.9 1.7 1.6 2.5 1.5 -0.5 -1.5 -2.3 -1.3 -2.7 -3.0 -3.3 -3.3 -2.7 -2.4 -2.4 -2.1 -1.6
3.2 3.0 4.0 5.2 3.6 2.6 0.9 0.8 1.4 2.8 2.4 3.0 3.4 3.0 2.5 3.5 4.0 4.7 4.4 4.1 3.2 0.6 2.6 1.4 2.6 1.8 0.6 0.4 0.7 -2.0 -2.8 -3.9 -3.1 -2.3 -2.3 -2.3 -2.6 -2.6
3.8 2.7 3.4 4.6 1.6 1.1 0.6 0.2 0.4 0.6 -0.8 1.4 3.4 3.8 3.6 3.2 2.3 2.3 3.4 4.9 5.2 3.8 3.1 1.8 1.7 3.1 3.4 1.8 1.1 -1.2 -2.6 -1.7 -1.7 -2.2 -2.2 -2.5 -2.9 -2.9
4.0 3.2 3.0 3.7 2.1 1.3 0.3 0.1 0.2 0.3 1.0 1.8 2.6 3.0 2.6 1.9 2.4 2.6 2.5 1.9 3.2 4.8 3.9 3.9 2.5 2.0 2.4 2.4 2.6 2.0 0.1 -1.7 -1.6 -1.8 -3.2 -4.1 -4.5 -4.2
4.9 4.8 4.7 3.5 3.1 2.8 2.1 1.1 0.5 0.1 1.3 1.3 1.2 1.0 1.2 1.3 1.1 1.7 2.4 4.1 4.0 2.6 3.2 5.0 4.6 3.1 -0.9 2.0 0.8 1.0 -0.3 -1.3 -2.3 -2.6 -3.5 -4.1 -3.8 -3.9
4.9 6.6 6.6 6.5 5.6 5.1 5.0 3.1 1.3 1.4 1.5 0.7 0.6 0.9 1.3 3.3 3.2 3.5 4.2 4.4 5.2 4.6 2.9 5.0 4.3 0.4 2.3 0.9 1.1 0.4 0.6 -1.0 -1.3 -2.2 -2.9 -3.5 -3.0 -2.4
5.1 6.2 6.9 6.0 5.3 5.1 4.4 3.8 4.0 2.4 2.2 2.7 2.3 2.2 2.5 2.5 3.2 3.1 2.8 3.3 3.2 2.9 3.1 2.1 2.0 0.9 0.5 3.5 -1.1 -2.7 0.6 -0.1 -0.7 -1.8 -3.0 -3.3 -3.5 -2.3
3.5 3.7 4.8 6.8 5.1 4.0 3.5 3.3 3.9 3.8 4.3 5.5 6.0 5.3 3.8 2.6 2.0 1.9 2.7 2.6 3.1 3.5 3.1 2.5 2.5 3.4 3.8 4.6 5.0 -0.3 -1.3 0.8 0.7 0.2 -1.2 -2.5 -3.5 -3.3
3.2 3.4 5.3 5.5 5.7 4.4 4.2 5.0 5.2 6.1 6.2 6.3 7.0 6.4 5.9 5.6 3.8 2.5 1.9 2.0 1.7 1.4 2.9 3.2 3.4 4.0 4.4 5.2 5.9 5.1 0.3 -1.7 0.2 1.2 0.2 -0.8 -0.9 -3.4
4.8 5.9 5.5 4.4 3.5 5.3 6.4 6.9 6.1 6.5 6.4 6.3 6.3 6.4 6.1 5.6 5.4 4.0 2.3 1.7 1.1 0.9 1.6 3.1 3.0 3.7 3.1 2.9 3.6 4.1 5.1 3.2 -1.3 0.1 0.9 0.2 -0.1 -0.9
4.8 4.4 4.3 4.5 5.1 6.8 6.9 6.8 6.9 6.7 6.5 6.4 6.4 6.4 6.6 6.5 6.2 5.5 5.3 3.1 2.7 2.2 1.8 2.3 2.7 2.7 2.3 2.3 2.0 2.2 3.0 3.7 2.5 -0.1 0.2 0.8 -0.2 -0.7
4.0 2.9 4.9 4.7 5.4 6.0 6.6 6.6 6.8 6.7 6.7 6.5 6.5 6.7 6.8 6.9 6.8 6.5 6.3 6.0 5.2 5.2 4.7 3.8 3.3 3.1 2.1 0.2 1.8 3.1 3.7 4.3 2.7 0.7 0.1 1.9 3.1 -0.2
4.5 5.3 5.2 5.4 5.9 6.4 6.5 6.7 6.6 6.8 6.5 6.4 6.7 6.8 6.8 6.9 6.7 6.6 6.6 6.4 6.3 6.3 6.4 6.0 5.6 5.4 5.7 5.4 3.2 2.5 4.0 3.0 2.9 1.3 1.9 2.0 3.0 3.2
5.3 5.9 6.2 6.1 6.2 6.2 6.5 6.7 6.9 6.7 6.6 6.9 6.8 6.8 6.8 6.8 6.8 6.9 6.9 6.8 6.8 7.1 7.3 6.9 5.9 6.2 6.5 6.6 5.8 2.6 1.8 3.0 3.2 3.3 3.3 1.3 0.8 -1.5
6.1 6.3 6.4 6.4 6.5 6.5 6.6 6.6 6.6 7.0 6.9 6.9 7.0 6.8 6.8 6.9 6.9 6.9 7.0 7.0 6.7 7.0 6.9 7.1 6.8 6.0 5.6 5.0 4.9 4.3 2.4 1.7 2.7 3.1 3.1 2.7 3.5 1.4
6.7 6.7 6.7 6.7 7.0 6.9 6.6 6.5 6.5 6.8 6.7 6.8 6.7 6.6 6.7 6.9 6.8 6.8 7.1 7.0 7.1 7.2 7.1 7.2 7.0 6.9 6.4 5.9 5.8 5.0 4.0 2.1 1.6 1.5 1.2 2.0 3.2 4.3
6.9 6.7 7.0 7.2 7.1 7.3 7.4 6.9 6.6 6.3 7.1 7.1 6.9 6.8 6.8 6.9 7.0 6.9 7.0 7.1 7.1 7.2 7.4 7.0 7.3 7.1 7.1 6.8 6.6 5.7 4.8 4.2 3.2 3.2 2.0 0.9 0.9 0.8
Wind_Speed
9 9 7 7 7 8 9 7 7 10 10 5 8 7 15 20 23 24 27 30 44 44 42 40 39 39 39 39 37 36 36 35 33 33 32 31 32 31
7 9 8 7 9 7 7 10 12 10 15 10 5 5 5 11 22 27 27 32 41 41 42 42 41 40 40 39 39 38 38 37 37 35 34 34 34 33
12 9 11 11 8 7 7 8 11 11 14 18 10 6 4 4 6 12 17 15 20 37 40 41 42 41 39 38 39 38 38 39 39 38 38 37 37 36
13 12 11 9 12 10 8 10 8 7 1 8 6 5 5 9 0 3 3 4 6 14 31 36 40 39 38 39 37 38 38 39 40 40 39 38 39 39
12 12 10 10 9 9 9 9 8 8 8 7 8 8 3 1 3 1 4 5 4 7 3 15 21 25 27 30 34 37 39 39 42 42 43 41 40 40
9 8 10 11 7 6 6 7 9 9 8 6 8 7 1 2 2 6 10 4 5 9 9 11 13 15 26 29 32 35 36 36 37 38 38 42 43 42
9 8 6 10 2 6 6 8 10 9 8 8 7 7 6 4 5 3 7 9 5 4 5 9 9 9 13 24 29 33 34 34 34 35 36 37 39 42
10 8 9 9 10 11 11 9 7 9 10 7 8 8 10 8 9 7 8 6 7 5 6 6 5 8 9 17 32 38 30 28 28 31 33 34 35 37
9 7 9 7 10 10 12 13 11 11 8 8 10 9 9 10 10 13 12 9 10 4 4 4 3 8 8 13 23 21 25 28 32 33 34 35 36 37
7 6 8 9 6 12 14 14 14 11 10 8 10 9 9 12 11 11 13 12 11 10 4 7 5 7 8 11 24 30 33 33 34 34 34 33 33 35
7 6 9 9 8 17 15 17 17 13 15 18 21 25 26 27 19 7 7 8 7 4 5 8 9 8 4 10 10 28 30 29 31 34 32 30 30 33
6 10 15 12 16 16 14 15 17 13 15 18 13 14 19 13 16 8 7 9 7 5 5 8 6 2 6 7 9 7 12 26 31 30 27 26 28 15
7 8 8 19 20 21 18 11 12 15 14 13 10 9 7 8 9 8 8 7 7 6 8 9 5 3 3 4 3 2 6 6 7 12 25 25 26 22
8 7 9 19 23 21 15 16 17 10 8 10 9 9 7 8 9 11 15 12 11 10 14 12 5 7 10 11 12 3 4 7 7 7 7 10 19 24
4 9 18 20 20 13 15 15 10 6 7 8 9 8 5 6 9 12 15 16 13 13 14 13 8 9 9 11 11 10 4 4 7 7 7 8 9 6
6 6 8 11 10 11 10 7 4 5 6 8 8 7 6 3 6 6 8 10 10 9 6 13 9 8 9 9 9 11 10 6 3 6 8 8 8 8
8 4 4 5 7 8 6 6 5 5 5 6 6 7 7 7 6 4 6 7 8 10 11 6 8 8 9 12 10 9 9 10 5 4 6 8 8 9
3 4 8 7 8 8 8 7 6 6 6 6 5 6 7 7 8 6 6 6 8 9 9 9 8 9 5 5 14 8 8 8 6 5 5 7 10 6
4 7 8 8 9 8 8 8 8 7 7 6 6 6 6 7 7 7 6 6 9 10 9 7 7 6 7 9 4 11 6 8 8 4 5 7 9 7
5 8 9 8 9 9 8 8 8 8 7 7 7 7 6 7 7 7 7 8 8 9 11 9 6 7 6 8 9 12 15 9 8 9 9 4 5 5
6 8 9 9 9 9 8 8 8 8 9 9 9 8 7 6 8 7 8 10 9 8 9 11 8 9 9 8 7 8 5 13 10 7 4 3 5 2
8 9 9 8 8 8 9 9 9 8 9 8 9 8 8 7 8 9 8 9 9 8 9 8 7 6 7 8 11 14 10 7 6 6 6 9 2 3
8 7 8 9 9 9 10 9 9 8 9 10 8 9 8 9 9 9 9 9 9 9 10 8 7 6 8 9 12 11 14 12 6 6 3 4 7 8
Wind_Direction
332 341 334 302 234 223 226 249 288 288 274 268 236 222 216 220 219 209 218 218 218 217 216 215 215 216 217 217 215 214 217 219 222 222 222 222 224 227
335 336 338 339 337 262 239 240 243 261 290 264 255 237 223 223 225 213 215 217 219 217 217 217 217 217 217 217 216 213 214 215 218 220 220 221 221 225
336 335 343 339 337 315 331 284 245 243 254 278 259 279 294 278 265 230 243 229 224 222 220 218 219 220 221 220 219 217 215 214 216 219 218 219 221 221
330 337 349 358 352 344 351 337 326 310 249 297 324 318 294 278 249 38 35 41 282 255 234 223 218 222 225 224 222 222 219 216 216 217 219 219 220 222
326 338 343 355 354 6 357 359 341 326 317 294 285 245 225 12 322 279 245 264 8 39 48 233 245 260 255 230 228 228 224 221 219 218 218 219 220 221
318 326 347 345 359 6 10 351 333 329 327 321 315 312 308 274 225 268 297 254 246 232 252 253 250 245 246 246 244 236 230 226 222 222 220 219 221 223
331 322 343 329 69 29 14 346 341 339 333 339 321 315 323 286 247 250 247 270 262 225 241 232 231 211 218 232 244 240 236 230 226 225 226 226 224 222
335 353 355 13 14 10 350 335 325 334 325 318 313 315 312 309 340 275 247 253 270 221 231 248 222 237 224 211 223 227 228 226 227 228 229 231 229 229
333 358 350 359 16 359 349 341 332 315 289 291 295 301 313 325 326 310 310 268 249 269 187 251 228 245 250 240 234 231 230 227 228 227 229 228 228 227
324 339 333 333 10 0 346 337 331 326 316 307 303 309 316 305 288 280 279 284 277 271 218 242 242 246 256 242 223 221 222 219 225 228 227 226 227 228
321 312 325 322 342 342 333 329 326 320 315 312 310 306 296 289 280 288 285 281 284 253 218 243 246 255 227 250 225 221 222 220 223 228 227 224 228 230
316 323 325 322 326 327 326 323 317 314 320 317 313 308 296 297 307 312 324 313 301 282 242 242 247 163 274 257 237 216 226 232 228 231 229 224 230 231
325 326 317 316 318 320 319 308 299 305 306 307 301 298 306 309 310 314 313 304 306 279 310 341 325 310 235 289 247 224 213 214 213 221 231 225 225 211
313 304 303 316 317 315 313 301 295 293 296 305 306 308 314 312 313 311 301 298 288 284 295 287 274 287 294 278 267 283 225 228 215 226 219 228 233 228
258 277 300 309 303 299 302 298 283 289 299 301 302 299 288 296 304 307 306 304 291 283 279 275 279 296 288 280 286 271 239 223 217 221 213 216 224 197
258 269 277 276 272 278 299 286 256 267 281 287 291 293 282 279 296 298 303 312 310 310 273 285 303 305 300 286 287 286 291 272 185 222 225 226 223 209
276 286 297 291 290 280 275 271 279 276 265 264 278 289 296 296 285 279 291 303 299 308 310 302 291 292 281 274 283 269 266 272 263 216 207 231 224 212
284 281 290 284 282 281 284 280 277 269 262 254 263 278 289 297 296 291 290 289 296 303 301 311 316 321 320 274 228 280 297 282 266 224 229 240 252 213
255 278 273 270 272 275 275 277 283 277 269 261 255 263 272 281 281 281 282 289 298 304 304 302 303 296 299 301 285 248 307 320 315 301 241 237 260 257
244 265 276 273 273 275 278 277 279 281 271 273 268 263 261 270 282 281 285 283 285 297 304 307 299 298 294 300 292 290 266 271 283 279 277 266 272 297
262 270 274 274 273 271 272 270 273 275 276 278 277 271 266 265 271 272 279 279 277 285 292 301 297 278 285 285 276 284 271 238 242 267 279 267 267 273
278 274 274 271 272 272 271 272 272 272 272 269 270 267 264 260 267 273 276 279 281 280 282 288 289 294 290 283 288 294 299 304 227 246 244 248 231 267
280 274 282 282 279 278 276 269 262 265 273 272 267 263 261 269 268 264 266 271 273 279 283 285 293 281 279 284 285 287 289 292 297 285 242 298 292 287